CAPE
1037 1050 1127 1067 937 880 818 673 424 435 464 2 0 0 0 0 0 232 301 230 257 137 505 797 481 300 317 260 233 0 0 0 0 0 0 3 20 222 289 217 269 170 142 177 168 180 188 238 205 142 82 30 2 25 13 3 3 4 5 5 4 5 6 7 4 3 3 5 6 4 4 3 4 3 4 6 7 8 11 7 7 9 10 8 9
1059 1006 1032 1024 953 890 780 643 507 389 458 0 0 0 0 0 0 173 221 184 66 4 132 503 11 17 17 20 10 2 0 0 0 0 0 0 55 308 229 356 406 262 259 207 218 226 156 98 77 73 43 34 20 3 5 4 4 4 3 4 2 3 6 8 8 6 8 5 5 8 7 3 3 3 5 4 3 6 6 5 7 8 11 6 4
1066 1023 994 962 934 922 804 653 582 414 196 0 0 0 0 0 0 49 151 167 0 0 29 0 6 45 92 38 3 0 0 0 0 0 3 0 4 82 187 259 321 481 746 501 213 96 91 81 69 25 5 5 22 34 29 3 0 2 2 2 4 5 6 5 6 6 6 8 6 8 8 8 6 7 6 3 6 6 6 10 14 6 5 7 3
1098 1113 1038 923 905 880 834 773 661 506 232 0 3 4 0 0 0 0 0 0 0 0 0 0 0 18 42 26 1 1 0 0 14 11 0 0 0 0 22 176 334 542 489 401 374 262 211 230 216 106 54 91 67 6 4 4 4 2 2 4 4 4 5 5 4 5 6 6 6 6 6 8 9 9 8 7 6 4 7 9 5 8 10 8 8
1156 1152 1074 959 923 906 933 843 620 501 383 33 20 0 0 0 0 0 0 0 0 0 0 0 1 31 89 48 21 32 16 28 11 3 0 0 0 0 2 104 508 559 290 314 609 512 340 343 221 180 124 94 20 4 3 4 7 8 4 4 0 1 1 1 4 4 4 5 7 4 4 5 7 6 6 5 5 4 5 5 7 8 6 6 5
1169 1103 1089 1026 947 918 909 637 518 476 406 2 381 470 0 210 0 203 236 0 0 0 0 10 37 168 224 182 161 39 29 40 149 0 0 0 0 0 0 24 124 185 294 382 890 745 599 316 257 68 132 31 22 18 8 7 4 5 5 1 2 5 6 3 2 1 4 6 4 4 7 8 8 7 5 6 4 5 6 6 7 6 6 5 4
1112 1014 1014 988 859 777 738 580 568 542 421 370 518 422 0 386 116 296 0 0 0 0 0 36 125 336 359 337 313 316 364 404 451 0 0 0 0 0 0 0 163 407 541 604 884 470 479 487 281 151 49 30 16 2 2 3 4 3 4 4 2 1 0 1 6 3 2 2 4 7 6 5 6 6 4 5 6 6 6 6 6 6 6 5 5
1123 1108 1016 928 761 648 655 552 593 594 539 543 484 274 385 271 338 52 0 0 0 0 7 60 142 341 366 390 355 376 431 472 483 405 0 0 0 0 0 0 290 512 498 360 328 388 410 506 562 156 90 27 4 6 4 10 4 2 1 2 2 3 4 3 1 5 7 6 5 4 6 4 2 3 4 2 3 2 4 4 6 6 4 4 3
1116 1001 976 875 700 572 556 514 577 644 658 642 517 200 0 0 0 356 266 0 0 1 11 163 271 360 457 439 405 450 466 430 434 164 0 0 0 0 0 432 765 514 322 343 459 223 241 357 553 454 203 98 228 121 79 72 8 0 0 1 2 1 2 4 3 0 2 3 2 1 1 1 2 3 6 5 3 4 6 4 4 4 4 3 4
1028 918 852 834 688 563 490 446 502 549 638 657 556 435 362 0 370 267 222 106 169 210 108 256 321 371 496 556 538 510 450 402 364 250 0 0 0 0 344 455 366 280 290 308 349 236 264 276 342 577 372 426 288 104 136 132 58 24 8 8 0 0 1 2 2 2 0 0 0 0 0 0 0 0 1 3 5 2 2 2 0 0 0 1 1
846 866 845 825 723 553 429 412 454 502 538 658 619 537 451 347 413 248 218 290 270 256 208 276 320 324 406 534 532 490 456 369 370 366 304 40 19 238 352 338 284 262 322 361 377 316 291 325 183 272 350 551 592 443 271 280 243 152 124 94 4 1 2 2 2 1 2 2 0 0 0 0 0 1 0 2 0 0 0 0 0 0 0 0 0
788 827 842 817 686 470 365 395 400 433 510 634 673 549 349 296 421 297 255 264 257 265 159 218 244 263 288 348 468 548 300 343 406 399 386 338 344 315 358 258 187 380 388 396 344 262 111 119 192 148 196 181 210 244 250 218 147 257 232 290 212 115 44 29 15 0 0 0 0 0 2 2 0 1 1 0 0 0 0 0 0 0 0 0 0
734 795 803 784 671 468 398 466 476 473 494 601 647 441 282 298 385 376 296 252 241 189 164 194 255 323 372 386 351 379 454 432 372 350 340 359 316 322 247 206 293 322 354 391 369 321 270 200 293 285 302 261 282 312 364 406 221 292 304 310 205 344 132 164 116 3 0 0 0 0 2 18 6 2 0 0 0 0 0 0 0 0 0 0 0
688 705 664 631 608 473 420 505 520 455 476 479 489 424 332 334 335 390 321 259 43 173 239 280 243 220 220 192 333 311 310 304 279 300 200 5 267 231 65 30 244 214 246 282 350 384 367 336 384 350 254 240 210 184 212 293 301 334 291 294 280 242 584 426 116 92 2 0 0 0 12 43 60 1 0 0 0 0 0 0 0 3 0 3 9
561 590 705 666 536 438 457 517 534 548 470 388 376 367 380 272 342 376 284 260 37 189 322 325 74 195 150 220 180 74 65 152 175 270 186 146 109 231 243 26 4 6 0 216 258 356 352 299 242 150 118 135 195 143 0 198 460 418 413 328 284 320 249 460 388 175 120 26 70 78 51 86 83 61 10 2 2 1 0 0 4 14 36 36 29
554 552 607 597 464 433 441 490 528 534 430 318 278 424 382 354 308 325 248 40 107 308 374 347 331 36 30 65 85 104 78 98 149 119 170 177 128 162 208 234 220 3 198 202 244 267 344 310 206 186 172 108 0 0 172 152 252 466 482 500 328 286 244 222 426 148 323 128 194 170 108 48 66 51 27 39 97 66 50 42 26 12 30 98 55
602 510 494 546 473 383 340 364 452 513 418 361 243 328 338 404 347 307 254 132 118 336 390 358 291 10 0 3 6 45 51 60 74 91 208 236 192 207 183 260 255 253 274 234 182 86 269 296 231 206 178 121 188 223 228 219 306 405 388 523 584 220 256 383 353 223 250 186 260 235 204 189 141 133 130 173 112 130 128 78 122 113 114 10 0
688 658 693 620 496 480 374 221 398 591 416 395 261 294 398 379 402 326 269 86 77 284 333 290 280 11 0 0 0 140 0 61 59 7 120 194 208 204 147 137 212 244 245 159 0 0 188 224 260 254 230 172 201 252 180 196 282 316 360 398 480 289 247 226 334 376 370 428 443 364 396 250 112 139 164 155 106 64 158 122 96 24 4 1 0
760 702 692 704 659 538 374 219 281 380 310 341 318 410 479 402 377 364 304 261 103 202 258 298 275 87 0 0 0 202 0 7 17 41 25 104 195 169 152 195 192 180 218 88 0 93 176 174 172 224 231 201 161 184 189 245 296 367 412 413 438 351 322 333 442 372 482 428 485 504 378 278 260 221 114 120 54 20 6 2 2 4 0 0 0
693 657 635 606 634 560 392 265 296 378 360 394 484 571 585 420 328 362 371 341 308 274 262 301 266 207 0 45 0 0 0 0 0 5 43 92 147 152 174 242 221 200 169 0 0 0 158 172 176 180 162 117 116 142 200 260 333 380 370 391 364 388 361 347 246 64 312 353 506 459 484 290 144 41 6 1 1 1 1 1 1 0 0 0 0
581 627 582 547 488 419 344 452 444 557 652 591 571 668 608 463 386 405 432 387 349 298 278 319 322 254 4 345 171 0 0 0 0 0 7 94 147 158 129 204 236 236 107 0 0 73 188 64 157 184 40 0 36 91 203 260 293 282 302 326 327 226 0 0 0 0 3 230 318 378 335 183 40 4 0 0 0 0 0 0 0 0 0 0 0
541 514 486 501 480 412 519 618 550 770 892 742 683 684 625 604 508 466 485 451 374 364 353 357 352 274 376 303 230 128 0 0 0 0 0 24 87 120 129 144 162 191 170 21 122 195 54 120 0 0 0 0 0 0 0 194 208 252 304 272 200 0 0 0 0 0 0 5 23 11 106 41 2 0 0 0 0 0 0 0 0 0 0 0 0
438 346 405 457 504 572 721 730 717 958 964 791 798 718 748 726 623 516 462 443 438 409 457 422 385 325 414 383 257 0 0 0 0 0 0 0 48 107 137 118 126 185 34 105 134 116 128 49 92 0 5 54 79 58 0 92 180 252 222 138 0 0 0 0 0 0 0 0 1 5 4 5 1 0 0 0 0 0 0 0 0 0 0 0 0
409 370 379 514 526 612 722 761 854 1100 1026 831 737 738 870 870 755 532 486 495 501 538 533 489 456 392 377 457 391 137 0 0 0 0 0 0 5 46 102 139 112 32 0 82 65 67 87 67 49 0 44 60 63 6 0 0 0 130 113 0 0 0 0 0 0 0 0 0 0 3 4 2 0 0 0 0 0 0 0 0 0 0 0 0 0
444 405 438 509 499 573 665 772 897 1126 1059 874 726 752 818 853 759 650 622 599 587 569 552 520 508 438 316 413 434 248 0 0 0 0 0 0 0 0 51 152 115 68 54 25 34 72 73 44 42 30 31 61 53 0 0 0 0 45 11 0 0 0 0 0 0 0 0 0 0 0 2 0 1 0 0 0 0 0 0 0 0 0 0 0 0
481 420 421 466 476 558 650 728 865 1097 1065 846 678 565 646 694 709 721 678 654 607 527 558 578 518 446 406 447 392 296 0 0 0 0 0 0 0 0 76 101 51 22 35 56 42 55 16 19 15 0 20 63 42 0 0 0 0 0 0 0 0 0 0 0 0 0 0 0 0 0 0 0 0 0 1 1 0 0 0 0 0 0 0 0 0
480 486 490 486 536 604 702 784 847 999 985 830 752 704 652 619 588 585 575 526 498 514 571 602 527 448 465 457 388 324 0 0 0 0 0 0 0 0 0 0 22 39 39 33 25 11 0 2 13 13 0 31 0 0 0 0 0 0 0 0 0 0 0 0 0 0 0 0 0 0 0 0 0 0 0 0 0 0 0 0 0 0 0 0 0
490 533 494 566 603 694 736 795 831 792 772 808 762 729 700 627 594 601 588 594 581 557 582 596 591 574 533 448 394 328 0 202 311 176 182 0 0 0 0 0 0 1 20 17 15 10 0 0 0 0 0 0 0 0 0 0 0 0 0 0 0 0 0 0 0 0 0 0 0 0 0 0 0 0 0 0 0 0 0 0 0 0 0 0 0
537 574 594 632 675 655 521 600 505 546 700 688 618 648 651 595 626 628 718 672 660 573 391 464 536 567 476 456 445 346 411 406 391 378 375 51 34 30 0 0 0 0 3 5 2 0 0 0 0 0 2 0 0 0 0 0 0 0 0 0 0 0 0 0 0 0 0 0 0 0 0 0 0 0 0 0 0 0 0 0 0 0 0 0 0
550 587 618 631 590 548 526 497 411 360 545 596 675 695 659 650 658 718 766 730 644 500 462 422 444 452 490 504 480 388 370 338 316 330 364 305 262 218 0 0 0 0 0 0 0 0 0 4 7 0 0 0 0 0 0 0 0 0 0 0 0 0 0 0 0 0 0 0 0 0 0 0 0 0 0 0 0 0 0 0 0 0 0 0 0
471 550 496 502 538 498 509 446 418 390 513 584 694 776 806 830 842 859 819 781 656 613 615 590 514 548 578 567 542 545 462 332 92 334 381 343 352 267 175 0 0 0 0 0 0 0 0 0 0 0 0 0 0 0 0 0 0 0 0 0 0 0 0 0 0 0 0 0 0 0 0 0 0 0 0 0 0 0 0 0 0 0 0 0 0
444 518 387 474 514 472 366 335 338 365 415 479 584 716 836 871 868 828 809 780 720 710 717 668 596 554 611 608 603 646 681 548 444 473 480 463 428 316 74 0 0 0 0 0 0 0 2 0 0 0 0 0 0 0 0 0 0 0 0 0 0 0 0 0 0 0 0 0 0 0 0 0 0 0 0 0 0 0 0 0 0 0 0 0 0
391 475 388 402 423 335 310 291 296 293 323 439 533 615 704 772 828 844 857 824 782 780 727 694 684 665 633 592 586 572 622 679 527 422 479 509 447 234 0 0 0 0 0 0 0 0 0 0 0 0 0 0 0 0 0 0 0 0 0 0 0 0 0 0 0 0 0 0 0 0 0 0 0 0 0 0 0 0 0 0 0 0 0 0 0
375 417 378 327 286 293 272 274 271 254 224 342 456 468 474 505 588 747 774 771 727 764 714 688 687 746 721 590 530 524 497 653 565 436 423 500 425 31 0 0 0 0 0 0 0 0 0 0 0 0 0 0 0 0 0 0 0 0 0 0 0 0 0 0 0 0 0 0 0 0 0 0 0 0 0 0 0 0 0 0 0 0 0 0 0
366 391 366 299 316 301 308 305 276 254 228 0 0 0 274 356 421 514 607 645 704 760 692 616 696 775 766 574 593 476 384 503 517 432 438 451 158 0 81 0 0 0 0 0 0 11 8 1 0 0 0 0 0 0 0 0 0 0 0 0 0 0 0 0 0 0 0 0 0 0 0 0 0 0 0 0 0 0 0 0 0 0 0 0 0
409 390 335 324 362 337 339 304 262 240 225 12 0 0 223 302 339 422 483 512 621 664 600 560 668 821 854 671 594 462 467 414 345 321 406 459 418 394 371 320 15 0 0 0 23 28 34 17 0 0 0 0 0 0 0 0 0 0 0 0 0 0 0 0 0 0 0 0 0 0 0 0 0 0 0 0 0 0 0 0 0 0 0 0 0
433 382 319 361 351 310 282 296 284 252 236 64 0 0 0 239 262 326 437 558 603 606 590 587 664 826 918 767 556 408 469 424 294 221 270 249 285 337 353 384 326 226 141 46 36 29 36 20 0 0 0 0 0 0 0 0 0 0 0 0 0 0 0 0 0 0 0 0 0 0 0 0 0 0 0 0 0 0 0 0 0 0 0 0 0
440 409 386 350 290 234 248 278 264 243 224 0 0 0 0 84 170 228 346 461 531 570 579 594 700 878 908 751 593 470 458 388 293 128 232 174 50 113 82 109 196 198 175 98 69 53 56 12 0 0 0 0 0 0 0 0 0 0 0 0 0 0 0 0 0 0 0 0 0 0 0 0 0 0 0 0 0 0 0 0 0 0 0 0 0
450 421 376 299 293 252 173 222 210 180 108 135 0 0 0 0 0 0 0 76 288 302 360 449 654 823 693 679 490 412 462 267 208 0 0 0 0 0 0 0 0 0 0 0 0 0 0 0 0 0 0 0 0 0 0 0 0 0 0 0 0 0 0 0 0 0 0 0 0 0 0 0 0 0 0 0 0 0 0 0 0 0 0 0 0
391 389 273 291 30 0 6 180 142 129 107 23 0 0 0 0 0 0 0 0 0 143 169 265 434 611 561 528 299 208 254 279 0 0 0 0 0 0 0 0 0 0 0 0 0 0 0 0 0 0 0 0 0 0 0 0 0 0 0 0 0 0 0 0 0 0 0 0 0 0 0 0 0 0 0 0 0 0 0 0 0 0 0 0 0
345 275 231 171 16 0 95 162 124 85 51 0 0 0 0 0 0 0 0 0 0 0 112 253 402 497 505 400 260 25 0 38 0 0 0 0 0 0 0 0 0 0 0 0 0 0 0 0 0 0 0 0 0 0 0 0 0 0 0 0 0 0 0 0 0 0 0 0 0 0 0 0 0 0 0 0 0 0 0 0 0 0 0 0 0
128 198 190 72 0 0 80 180 122 40 0 0 0 0 0 0 0 0 0 0 0 0 70 310 466 460 394 174 0 0 0 0 0 0 0 0 0 0 0 0 0 0 0 0 0 0 0 0 0 0 0 0 0 0 0 0 0 0 0 0 0 0 0 0 0 0 0 0 0 0 0 0 0 0 0 0 0 0 0 0 0 0 0 0 0
2 203 145 8 0 0 48 127 0 22 0 0 0 0 0 0 0 0 0 0 0 0 36 275 245 230 44 0 0 0 0 0 0 0 0 0 0 0 0 0 0 0 0 0 0 0 0 0 0 0 0 0 0 0 0 0 0 0 0 0 0 0 0 0 0 0 0 0 0 0 0 0 0 0 0 0 0 0 0 0 0 4 11 13 3
0 166 108 4 0 0 29 30 0 0 0 0 0 0 0 0 0 0 0 0 0 11 225 190 163 51 0 0 0 0 0 0 0 0 0 0 0 0 0 0 0 0 0 0 0 0 0 0 0 0 0 0 0 0 0 0 0 0 0 0 0 0 0 0 0 0 0 0 0 0 0 0 0 0 0 0 0 0 0 0 0 0 0 5 5
29 167 100 52 0 0 21 75 34 0 0 0 0 0 0 0 0 0 0 0 121 162 213 191 186 142 0 0 0 0 0 0 0 0 5 12 1 0 0 0 0 0 0 0 0 0 0 0 0 0 0 0 0 0 0 0 0 0 0 0 0 0 0 0 0 0 0 0 0 0 0 0 0 0 0 0 0 0 0 0 0 0 0 0 0
18 158 116 75 0 0 0 22 50 0 0 0 0 0 0 0 0 0 0 92 153 160 164 137 0 0 0 0 0 0 0 0 0 0 1 6 4 0 2 0 0 0 0 0 0 0 0 0 0 0 0 0 0 0 0 0 0 0 0 0 0 0 0 0 0 0 0 0 0 0 0 0 0 0 0 0 0 0 0 0 0 0 0 0 0
21 96 83 58 49 0 0 0 60 61 2 0 0 0 0 0 0 0 0 0 134 130 117 81 0 0 0 0 0 0 0 0 0 0 0 0 0 0 34 81 84 86 6 18 0 0 0 0 0 0 0 0 0 0 0 0 0 0 0 0 0 0 0 0 0 0 0 0 0 0 0 0 0 0 0 0 0 0 0 0 0 66 73 37 54
66 93 95 75 61 0 0 0 57 66 6 0 0 0 0 0 0 0 0 0 25 61 20 96 121 123 70 0 0 0 0 0 0 0 0 0 0 0 0 22 0 0 82 86 83 64 0 28 45 0 0 0 0 0 0 0 0 0 0 0 0 0 0 0 0 0 0 0 0 0 0 0 0 0 0 0 0 0 0 0 0 68 91 106 98
54 17 58 66 16 0 0 0 0 0 0 0 0 0 0 0 0 0 0 0 0 4 50 78 96 97 70 45 22 0 1 0 0 0 0 0 0 78 89 96 102 88 89 77 80 77 69 19 20 0 0 0 0 0 0 0 0 0 0 0 0 0 0 0 0 0 0 0 0 14 16 0 1 1 1 1 2 4 4 4 0 0 2 2 0
64 0 53 64 19 0 0 0 0 0 0 0 0 0 0 0 0 0 0 0 0 0 4 32 41 36 28 28 31 26 28 33 72 73 0 0 0 0 0 0 0 0 10 2 5 5 3 2 2 1 0 0 0 0 0 0 0 0 0 0 0 0 0 0 0 0 1 3 4 5 5 4 2 2 2 4 1 1 2 5 5 2 1 0 0
68 14 60 73 47 0 0 0 0 0 0 0 0 0 0 0 0 0 0 0 0 0 0 10 30 31 36 35 50 70 83 62 33 31 7 5 0 0 0 0 0 0 0 0 0 0 0 0 0 0 0 0 0 0 0 0 0 0 0 0 0 0 0 0 0 0 0 0 1 2 1 1 2 3 1 0 0 0 0 0 0 0 0 0 0
Wind_Speed
18 17 18 17 17 17 17 17 17 16 17 nan nan nan nan nan nan 12 10 10 11 12 10 7 9 10 11 11 11 nan nan nan nan nan nan nan nan 18 22 22 19 19 20 20 21 21 21 20 20 20 nan nan nan nan nan nan nan nan nan nan nan nan nan nan nan nan nan nan nan nan nan nan nan nan nan nan nan nan nan nan nan nan nan nan nan
19 19 18 16 16 16 16 15 14 14 16 nan nan nan nan nan nan 12 12 13 nan nan 10 8 nan nan nan nan nan nan nan nan nan nan nan nan nan 17 23 21 19 17 17 18 19 20 20 nan nan nan nan nan nan nan nan nan nan nan nan nan nan nan nan nan nan nan nan nan nan nan nan nan nan nan nan nan nan nan nan nan nan nan nan nan nan
21 19 17 17 16 15 14 14 13 13 15 nan nan nan nan nan nan nan 13 16 nan nan nan nan nan nan nan nan nan nan nan nan nan nan nan nan nan nan 17 18 16 14 13 15 18 nan nan nan nan nan nan nan nan nan nan nan nan nan nan nan nan nan nan nan nan nan nan nan nan nan nan nan nan nan nan nan nan nan nan nan nan nan nan nan nan
19 18 17 16 15 15 14 13 12 12 15 nan nan nan nan nan nan nan nan nan nan nan nan nan nan nan nan nan nan nan nan nan nan nan nan nan nan nan nan 11 13 15 17 15 14 15 15 16 16 17 nan nan nan nan nan nan nan nan nan nan nan nan nan nan nan nan nan nan nan nan nan nan nan nan nan nan nan nan nan nan nan nan nan nan nan
17 16 16 15 15 15 13 12 12 13 16 nan nan nan nan nan nan nan nan nan nan nan nan nan nan nan nan nan nan nan nan nan nan nan nan nan nan nan nan 9 9 13 14 13 9 12 13 13 14 15 15 nan nan nan nan nan nan nan nan nan nan nan nan nan nan nan nan nan nan nan nan nan nan nan nan nan nan nan nan nan nan nan nan nan nan
17 16 16 16 15 15 13 12 11 13 16 nan 18 14 nan 15 nan 15 16 nan nan nan nan nan nan 11 11 11 10 nan nan nan 10 nan nan nan nan nan nan nan 9 8 8 11 13 12 11 12 12 nan 13 nan nan nan nan nan nan nan nan nan nan nan nan nan nan nan nan nan nan nan nan nan nan nan nan nan nan nan nan nan nan nan nan nan nan
15 16 15 17 17 15 13 12 10 11 16 18 19 15 nan 14 14 18 nan nan nan nan nan nan 12 12 11 11 11 11 11 11 10 nan nan nan nan nan nan nan 10 9 8 7 9 11 8 10 12 11 nan nan nan nan nan nan nan nan nan nan nan nan nan nan nan nan nan nan nan nan nan nan nan nan nan nan nan nan nan nan nan nan nan nan nan
15 15 16 16 16 14 13 11 9 10 14 18 17 16 16 15 13 nan nan nan nan nan nan nan 13 13 12 11 11 10 10 11 11 10 nan nan nan nan nan nan 9 9 9 9 9 9 6 6 8 9 nan nan nan nan nan nan nan nan nan nan nan nan nan nan nan nan nan nan nan nan nan nan nan nan nan nan nan nan nan nan nan nan nan nan nan
14 14 15 15 14 14 12 11 9 10 13 15 14 13 nan nan nan 15 18 nan nan nan nan 13 13 12 12 12 11 10 10 11 11 9 nan nan nan nan nan 8 8 10 9 8 7 7 4 8 8 7 6 nan 6 7 nan nan nan nan nan nan nan nan nan nan nan nan nan nan nan nan nan nan nan nan nan nan nan nan nan nan nan nan nan nan nan
15 15 15 15 15 14 13 12 11 11 13 15 15 14 14 nan 17 16 17 18 17 16 15 14 14 13 12 12 12 10 10 11 10 9 nan nan nan nan 8 8 8 8 7 6 6 6 7 10 11 9 7 7 6 5 6 6 nan nan nan nan nan nan nan nan nan nan nan nan nan nan nan nan nan nan nan nan nan nan nan nan nan nan nan nan nan
15 16 16 15 15 15 14 13 12 12 13 15 16 15 15 15 16 18 18 16 16 15 15 14 14 12 13 13 11 10 10 10 10 10 10 nan nan 9 7 7 7 7 6 6 7 6 6 7 9 10 10 13 13 10 6 5 4 6 7 nan nan nan nan nan nan nan nan nan nan nan nan nan nan nan nan nan nan nan nan nan nan nan nan nan nan
16 15 15 15 14 14 15 14 13 13 13 15 15 14 15 15 14 17 18 18 17 15 15 15 14 13 14 14 12 11 10 10 11 10 9 9 10 8 7 5 7 7 7 7 7 5 4 6 9 9 10 11 11 10 8 10 9 6 4 5 7 9 nan nan nan nan nan nan nan nan nan nan nan nan nan nan nan nan nan nan nan nan nan nan nan
15 13 14 14 13 14 16 15 13 12 11 13 14 14 15 15 16 16 17 18 16 14 14 15 15 13 13 14 13 11 11 12 12 11 9 8 9 9 8 8 8 8 6 5 6 5 4 5 7 8 10 10 10 9 9 8 4 2 1 1 3 4 8 10 11 nan nan nan nan nan nan nan nan nan nan nan nan nan nan nan nan nan nan nan nan
13 13 14 13 12 13 14 14 13 11 11 13 14 15 16 16 17 18 16 17 nan 13 13 15 12 12 12 11 12 12 12 12 12 11 10 nan 10 11 nan nan 9 8 6 5 5 6 4 4 6 8 9 10 10 9 8 8 6 4 6 3 3 5 5 8 11 nan nan nan nan nan nan nan nan nan nan nan nan nan nan nan nan nan nan nan nan
13 13 13 13 12 13 13 14 13 12 12 13 13 14 15 15 16 17 19 16 nan 13 12 12 nan 14 14 13 11 nan nan 11 11 11 11 10 11 10 10 nan nan nan nan 5 5 5 4 4 5 6 8 9 9 10 nan 8 8 8 4 2 1 2 5 5 10 11 12 nan nan nan nan nan nan nan nan nan nan nan nan nan nan nan nan nan nan
13 14 14 13 12 12 14 15 14 13 12 12 12 13 15 15 16 17 18 nan 13 12 12 14 16 nan nan nan nan 9 nan nan 11 9 10 11 11 12 10 9 9 nan 8 7 6 6 5 5 6 6 7 8 nan nan 9 7 9 9 8 4 4 4 4 6 8 10 11 11 11 9 8 nan nan nan nan nan nan nan nan nan nan nan nan nan nan
13 13 13 13 13 14 14 14 15 14 13 12 11 11 15 17 17 18 15 16 15 14 13 14 13 nan nan nan nan nan nan nan nan nan 11 11 12 13 11 11 12 11 9 8 8 nan 7 8 7 7 8 9 9 9 9 9 9 8 8 7 5 8 8 7 10 9 8 10 10 9 8 8 8 10 9 10 9 9 8 nan 12 14 18 nan nan
14 13 13 14 14 15 14 14 15 14 12 12 11 14 17 18 17 17 15 nan nan 17 15 12 12 nan nan nan nan 10 nan nan nan nan 11 11 12 14 13 13 14 13 11 10 nan nan 10 9 9 9 10 10 10 10 10 10 9 8 8 9 12 12 15 9 11 10 10 10 10 9 10 11 11 12 12 12 14 nan 18 19 nan nan nan nan nan
13 12 12 13 14 14 14 14 14 13 13 14 13 14 17 18 18 17 15 16 17 18 16 15 14 nan nan nan nan 11 nan nan nan nan nan 11 12 13 14 15 15 13 12 nan nan nan 11 11 11 11 11 11 11 11 11 11 12 12 14 15 15 13 12 12 13 13 13 13 12 13 14 14 14 14 15 17 nan nan nan nan nan nan nan nan nan
13 12 12 13 13 13 13 14 14 13 14 14 14 16 19 19 18 18 18 16 17 18 17 16 16 11 nan nan nan nan nan nan nan nan nan nan 14 14 14 15 15 13 13 nan nan nan 13 13 13 13 13 13 12 12 12 12 12 12 13 17 17 17 17 16 15 nan 16 16 16 17 18 18 18 nan nan nan nan nan nan nan nan nan nan nan nan
14 14 14 14 14 13 13 15 15 13 14 15 17 19 19 20 20 20 17 16 16 18 19 17 16 14 nan 16 17 nan nan nan nan nan nan nan 14 14 13 14 14 14 15 nan nan nan 15 nan 14 14 nan nan nan nan 14 14 14 13 14 18 19 19 nan nan nan nan nan 18 20 21 21 21 nan nan nan nan nan nan nan nan nan nan nan nan nan
15 16 17 17 16 15 15 15 14 14 15 16 19 21 21 21 20 19 18 18 17 19 18 18 16 16 16 15 16 16 nan nan nan nan nan nan nan 14 14 14 13 13 15 nan 14 16 nan 16 nan nan nan nan nan nan nan 14 14 14 16 20 20 nan nan nan nan nan nan nan nan nan 20 nan nan nan nan nan nan nan nan nan nan nan nan nan nan
16 17 19 20 19 17 16 16 15 15 15 17 18 20 21 21 21 20 19 18 18 19 19 19 18 17 16 15 16 nan nan nan nan nan nan nan nan 15 16 14 13 15 nan 15 17 17 17 nan nan nan nan nan nan nan nan nan 14 16 19 20 nan nan nan nan nan nan nan nan nan nan nan nan nan nan nan nan nan nan nan nan nan nan nan nan nan
17 18 19 21 20 19 18 18 16 16 15 17 18 20 21 23 22 21 19 19 20 20 20 20 18 17 16 15 14 14 nan nan nan nan nan nan nan nan 16 16 17 nan nan nan nan nan nan nan nan nan nan nan nan nan nan nan nan 18 18 nan nan nan nan nan nan nan nan nan nan nan nan nan nan nan nan nan nan nan nan nan nan nan nan nan nan
17 17 18 19 20 20 19 18 17 15 17 19 19 20 22 22 23 21 20 21 21 21 21 19 18 17 15 15 16 16 nan nan nan nan nan nan nan nan nan 17 17 nan nan nan nan nan nan nan nan nan nan nan nan nan nan nan nan nan nan nan nan nan nan nan nan nan nan nan nan nan nan nan nan nan nan nan nan nan nan nan nan nan nan nan nan
17 17 18 20 21 20 20 18 17 17 19 20 20 20 21 21 22 22 21 20 22 21 20 20 19 18 19 18 16 16 nan nan nan nan nan nan nan nan nan 18 nan nan nan nan nan nan nan nan nan nan nan nan nan nan nan nan nan nan nan nan nan nan nan nan nan nan nan nan nan nan nan nan nan nan nan nan nan nan nan nan nan nan nan nan nan
18 19 22 22 22 23 21 20 19 20 21 22 21 21 20 21 22 22 23 23 22 22 21 21 20 20 19 17 17 17 nan nan nan nan nan nan nan nan nan nan nan nan nan nan nan nan nan nan nan nan nan nan nan nan nan nan nan nan nan nan nan nan nan nan nan nan nan nan nan nan nan nan nan nan nan nan nan nan nan nan nan nan nan nan nan
21 24 23 24 24 24 23 22 22 22 22 23 22 21 21 21 22 23 23 23 23 21 21 20 19 19 18 19 19 17 nan 17 17 16 15 nan nan nan nan nan nan nan nan nan nan nan nan nan nan nan nan nan nan nan nan nan nan nan nan nan nan nan nan nan nan nan nan nan nan nan nan nan nan nan nan nan nan nan nan nan nan nan nan nan nan
23 24 26 26 25 25 26 25 24 24 24 24 23 22 22 22 22 23 23 22 22 21 22 20 19 20 20 20 18 19 18 17 16 15 16 nan nan nan nan nan nan nan nan nan nan nan nan nan nan nan nan nan nan nan nan nan nan nan nan nan nan nan nan nan nan nan nan nan nan nan nan nan nan nan nan nan nan nan nan nan nan nan nan nan nan
23 24 27 27 26 27 28 26 25 26 26 25 23 22 22 22 21 21 22 22 22 23 22 21 21 21 21 21 20 20 19 18 16 16 17 18 18 18 nan nan nan nan nan nan nan nan nan nan nan nan nan nan nan nan nan nan nan nan nan nan nan nan nan nan nan nan nan nan nan nan nan nan nan nan nan nan nan nan nan nan nan nan nan nan nan
24 26 27 28 28 28 28 28 27 27 27 25 22 22 22 22 21 22 22 22 22 22 22 22 22 22 22 21 20 21 20 18 nan 18 18 19 19 21 21 nan nan nan nan nan nan nan nan nan nan nan nan nan nan nan nan nan nan nan nan nan nan nan nan nan nan nan nan nan nan nan nan nan nan nan nan nan nan nan nan nan nan nan nan nan nan
25 25 27 27 28 29 28 28 28 27 26 23 21 22 22 21 21 22 20 21 22 22 22 23 23 22 22 22 20 21 20 20 19 18 19 19 21 21 nan nan nan nan nan nan nan nan nan nan nan nan nan nan nan nan nan nan nan nan nan nan nan nan nan nan nan nan nan nan nan nan nan nan nan nan nan nan nan nan nan nan nan nan nan nan nan
26 25 27 27 28 28 28 28 29 27 24 22 21 22 22 21 21 21 21 21 21 22 23 23 23 23 22 21 20 20 21 21 19 19 19 19 20 20 nan nan nan nan nan nan nan nan nan nan nan nan nan nan nan nan nan nan nan nan nan nan nan nan nan nan nan nan nan nan nan nan nan nan nan nan nan nan nan nan nan nan nan nan nan nan nan
26 26 28 27 27 27 27 28 29 28 25 23 23 23 23 22 21 21 21 21 21 22 23 23 23 23 23 21 20 21 22 24 21 20 19 19 20 nan nan nan nan nan nan nan nan nan nan nan nan nan nan nan nan nan nan nan nan nan nan nan nan nan nan nan nan nan nan nan nan nan nan nan nan nan nan nan nan nan nan nan nan nan nan nan nan
24 26 27 28 27 26 26 27 28 27 25 nan nan nan 22 22 22 21 21 21 21 22 22 22 23 24 23 21 20 22 22 24 22 22 21 20 19 nan nan nan nan nan nan nan nan nan nan nan nan nan nan nan nan nan nan nan nan nan nan nan nan nan nan nan nan nan nan nan nan nan nan nan nan nan nan nan nan nan nan nan nan nan nan nan nan
24 25 27 27 26 25 26 27 26 25 24 nan nan nan 23 23 23 22 21 21 21 21 21 22 23 23 22 20 20 21 22 23 21 21 19 19 16 15 16 16 nan nan nan nan nan nan nan nan nan nan nan nan nan nan nan nan nan nan nan nan nan nan nan nan nan nan nan nan nan nan nan nan nan nan nan nan nan nan nan nan nan nan nan nan nan
25 26 26 26 26 26 28 28 27 25 24 nan nan nan nan 23 23 23 22 20 20 21 21 23 23 22 22 19 21 22 22 22 20 20 17 17 16 16 15 16 16 17 19 nan nan nan nan nan nan nan nan nan nan nan nan nan nan nan nan nan nan nan nan nan nan nan nan nan nan nan nan nan nan nan nan nan nan nan nan nan nan nan nan nan nan
26 26 26 25 27 28 29 30 29 27 27 nan nan nan nan nan 24 22 21 20 20 22 23 23 22 22 22 22 22 23 24 23 19 19 19 18 nan 16 nan 17 19 20 19 nan nan nan nan nan nan nan nan nan nan nan nan nan nan nan nan nan nan nan nan nan nan nan nan nan nan nan nan nan nan nan nan nan nan nan nan nan nan nan nan nan nan
27 27 26 25 26 28 30 32 31 31 30 28 nan nan nan nan nan nan nan nan 22 23 24 24 26 28 29 30 30 24 25 22 21 nan nan nan nan nan nan nan nan nan nan nan nan nan nan nan nan nan nan nan nan nan nan nan nan nan nan nan nan nan nan nan nan nan nan nan nan nan nan nan nan nan nan nan nan nan nan nan nan nan nan nan nan
27 26 25 25 nan nan nan 33 33 32 32 nan nan nan nan nan nan nan nan nan nan 25 26 26 24 24 27 27 28 24 23 19 nan nan nan nan nan nan nan nan nan nan nan nan nan nan nan nan nan nan nan nan nan nan nan nan nan nan nan nan nan nan nan nan nan nan nan nan nan nan nan nan nan nan nan nan nan nan nan nan nan nan nan nan nan
26 26 28 29 nan nan nan 34 33 nan nan nan nan nan nan nan nan nan nan nan nan nan 27 26 25 27 28 26 26 nan nan nan nan nan nan nan nan nan nan nan nan nan nan nan nan nan nan nan nan nan nan nan nan nan nan nan nan nan nan nan nan nan nan nan nan nan nan nan nan nan nan nan nan nan nan nan nan nan nan nan nan nan nan nan nan
27 28 27 nan nan nan nan 36 33 nan nan nan nan nan nan nan nan nan nan nan nan nan nan 29 28 28 28 27 nan nan nan nan nan nan nan nan nan nan nan nan nan nan nan nan nan nan nan nan nan nan nan nan nan nan nan nan nan nan nan nan nan nan nan nan nan nan nan nan nan nan nan nan nan nan nan nan nan nan nan nan nan nan nan nan nan
nan 26 25 nan nan nan nan 33 nan nan nan nan nan nan nan nan nan nan nan nan nan nan nan 30 29 28 nan nan nan nan nan nan nan nan nan nan nan nan nan nan nan nan nan nan nan nan nan nan nan nan nan nan nan nan nan nan nan nan nan nan nan nan nan nan nan nan nan nan nan nan nan nan nan nan nan nan nan nan nan nan nan nan nan nan nan
nan 29 26 nan nan nan nan nan nan nan nan nan nan nan nan nan nan nan nan nan nan nan 29 31 30 nan nan nan nan nan nan nan nan nan nan nan nan nan nan nan nan nan nan nan nan nan nan nan nan nan nan nan nan nan nan nan nan nan nan nan nan nan nan nan nan nan nan nan nan nan nan nan nan nan nan nan nan nan nan nan nan nan nan nan nan
nan 33 28 nan nan nan nan nan nan nan nan nan nan nan nan nan nan nan nan nan 30 29 30 30 30 29 nan nan nan nan nan nan nan nan nan nan nan nan nan nan nan nan nan nan nan nan nan nan nan nan nan nan nan nan nan nan nan nan nan nan nan nan nan nan nan nan nan nan nan nan nan nan nan nan nan nan nan nan nan nan nan nan nan nan nan
nan 39 32 nan nan nan nan nan nan nan nan nan nan nan nan nan nan nan nan nan 31 33 32 31 nan nan nan nan nan nan nan nan nan nan nan nan nan nan nan nan nan nan nan nan nan nan nan nan nan nan nan nan nan nan nan nan nan nan nan nan nan nan nan nan nan nan nan nan nan nan nan nan nan nan nan nan nan nan nan nan nan nan nan nan nan
nan nan nan nan nan nan nan nan nan nan nan nan nan nan nan nan nan nan nan nan 33 34 35 nan nan nan nan nan nan nan nan nan nan nan nan nan nan nan nan nan nan nan nan nan nan nan nan nan nan nan nan nan nan nan nan nan nan nan nan nan nan nan nan nan nan nan nan nan nan nan nan nan nan nan nan nan nan nan nan nan nan nan nan nan nan
nan nan nan nan nan nan nan nan nan nan nan nan nan nan nan nan nan nan nan nan nan nan nan nan 36 34 nan nan nan nan nan nan nan nan nan nan nan nan nan nan nan nan nan nan nan nan nan nan nan nan nan nan nan nan nan nan nan nan nan nan nan nan nan nan nan nan nan nan nan nan nan nan nan nan nan nan nan nan nan nan nan nan nan 57 nan
nan nan nan nan nan nan nan nan nan nan nan nan nan nan nan nan nan nan nan nan nan nan nan nan nan nan nan nan nan nan nan nan nan nan nan nan nan nan nan nan 38 nan nan nan nan nan nan nan nan nan nan nan nan nan nan nan nan nan nan nan nan nan nan nan nan nan nan nan nan nan nan nan nan nan nan nan nan nan nan nan nan nan nan nan nan
nan nan nan nan nan nan nan nan nan nan nan nan nan nan nan nan nan nan nan nan nan nan nan nan nan nan nan nan nan nan nan nan nan nan nan nan nan nan nan nan nan nan nan nan nan nan nan nan nan nan nan nan nan nan nan nan nan nan nan nan nan nan nan nan nan nan nan nan nan nan nan nan nan nan nan nan nan nan nan nan nan nan nan nan nan
nan nan nan nan nan nan nan nan nan nan nan nan nan nan nan nan nan nan nan nan nan nan nan nan nan nan nan nan nan nan nan nan nan nan nan nan nan nan nan nan nan nan nan nan nan nan nan nan nan nan nan nan nan nan nan nan nan nan nan nan nan nan nan nan nan nan nan nan nan nan nan nan nan nan nan nan nan nan nan nan nan nan nan nan nan
Wind_Direction
260 258 258 262 266 271 277 280 282 282 278 nan nan nan nan nan nan 270 271 269 262 273 279 264 263 272 285 295 299 nan nan nan nan nan nan nan nan 304 304 301 293 292 295 296 290 283 278 273 267 262 nan nan nan nan nan nan nan nan nan nan nan nan nan nan nan nan nan nan nan nan nan nan nan nan nan nan nan nan nan nan nan nan nan nan nan
261 255 259 261 263 263 269 275 280 277 275 nan nan nan nan nan nan 274 270 265 nan nan 275 263 nan nan nan nan nan nan nan nan nan nan nan nan nan 306 308 305 304 308 308 303 296 283 275 nan nan nan nan nan nan nan nan nan nan nan nan nan nan nan nan nan nan nan nan nan nan nan nan nan nan nan nan nan nan nan nan nan nan nan nan nan nan
262 257 252 255 260 263 262 263 271 276 277 nan nan nan nan nan nan nan 276 271 nan nan nan nan nan nan nan nan nan nan nan nan nan nan nan nan nan nan 308 312 313 309 300 299 293 nan nan nan nan nan nan nan nan nan nan nan nan nan nan nan nan nan nan nan nan nan nan nan nan nan nan nan nan nan nan nan nan nan nan nan nan nan nan nan nan
257 254 253 255 258 258 253 256 265 270 272 nan nan nan nan nan nan nan nan nan nan nan nan nan nan nan nan nan nan nan nan nan nan nan nan nan nan nan nan 302 306 300 297 299 307 300 283 275 273 271 nan nan nan nan nan nan nan nan nan nan nan nan nan nan nan nan nan nan nan nan nan nan nan nan nan nan nan nan nan nan nan nan nan nan nan
252 253 254 261 258 255 252 254 261 265 270 nan nan nan nan nan nan nan nan nan nan nan nan nan nan nan nan nan nan nan nan nan nan nan nan nan nan nan nan 293 297 307 303 311 308 306 290 277 275 275 272 nan nan nan nan nan nan nan nan nan nan nan nan nan nan nan nan nan nan nan nan nan nan nan nan nan nan nan nan nan nan nan nan nan nan
251 252 261 262 257 257 262 264 266 271 263 nan 260 267 nan 265 nan 260 258 nan nan nan nan nan nan 260 268 281 281 nan nan nan 292 nan nan nan nan nan nan nan 292 300 312 308 286 279 279 285 277 nan 267 nan nan nan nan nan nan nan nan nan nan nan nan nan nan nan nan nan nan nan nan nan nan nan nan nan nan nan nan nan nan nan nan nan nan
249 260 266 266 258 254 260 267 267 265 256 250 257 257 nan 273 270 260 nan nan nan nan nan nan 268 269 273 277 283 278 279 285 287 nan nan nan nan nan nan nan 292 295 300 305 296 274 250 281 281 274 nan nan nan nan nan nan nan nan nan nan nan nan nan nan nan nan nan nan nan nan nan nan nan nan nan nan nan nan nan nan nan nan nan nan nan
253 261 269 263 258 258 261 259 257 255 248 244 252 263 260 263 264 nan nan nan nan nan nan nan 260 269 271 277 277 278 280 281 286 293 nan nan nan nan nan nan 302 302 302 303 294 282 224 232 273 275 nan nan nan nan nan nan nan nan nan nan nan nan nan nan nan nan nan nan nan nan nan nan nan nan nan nan nan nan nan nan nan nan nan nan nan
254 259 264 260 252 257 256 247 240 248 250 252 254 257 nan nan nan 252 256 nan nan nan nan 253 262 267 267 272 278 278 274 276 285 298 nan nan nan nan nan 297 299 294 305 306 291 283 260 181 235 237 258 nan 266 264 nan nan nan nan nan nan nan nan nan nan nan nan nan nan nan nan nan nan nan nan nan nan nan nan nan nan nan nan nan nan nan
251 256 258 257 254 258 253 241 237 237 245 257 258 248 251 nan 256 246 257 262 256 254 255 254 264 267 256 262 274 270 270 275 285 296 nan nan nan nan 288 286 286 291 307 297 295 285 252 215 219 220 220 231 233 246 253 266 nan nan nan nan nan nan nan nan nan nan nan nan nan nan nan nan nan nan nan nan nan nan nan nan nan nan nan nan nan
251 252 258 257 253 250 251 245 236 234 243 258 260 254 254 252 256 251 248 242 248 249 255 257 262 258 256 258 261 259 266 271 273 279 282 nan nan 296 278 276 282 282 289 291 290 286 261 238 216 202 209 222 217 213 221 231 274 307 311 nan nan nan nan nan nan nan nan nan nan nan nan nan nan nan nan nan nan nan nan nan nan nan nan nan nan
244 248 249 254 253 248 248 243 233 231 248 262 256 258 266 263 256 261 257 247 238 248 257 264 259 257 260 257 258 253 249 257 264 269 278 279 279 279 267 264 276 277 283 290 289 294 251 230 228 213 206 220 223 222 227 233 214 186 311 310 323 316 nan nan nan nan nan nan nan nan nan nan nan nan nan nan nan nan nan nan nan nan nan nan nan
243 244 246 246 243 243 243 236 229 230 248 259 251 253 256 256 262 256 261 255 244 249 260 270 270 258 256 255 253 253 251 252 257 260 260 259 282 274 267 272 277 273 269 275 278 274 246 218 219 220 217 216 223 224 234 239 298 42 247 232 299 322 323 319 310 nan nan nan nan nan nan nan nan nan nan nan nan nan nan nan nan nan nan nan nan
240 241 242 244 244 241 240 234 229 237 243 248 247 247 253 255 256 248 237 251 nan 263 272 273 252 267 272 261 249 246 248 250 256 264 268 nan 265 270 nan nan 277 265 251 249 253 256 254 228 210 209 208 217 224 229 226 220 211 213 331 50 297 332 327 325 314 nan nan nan nan nan nan nan nan nan nan nan nan nan nan nan nan nan nan nan nan
235 244 248 247 246 238 231 227 233 247 250 249 251 257 261 261 259 260 254 233 nan 260 266 250 nan 264 258 257 252 nan nan 245 252 257 272 271 278 280 279 nan nan nan nan 248 254 244 234 228 222 216 215 217 220 220 nan 204 193 187 178 316 250 317 313 319 304 305 311 nan nan nan nan nan nan nan nan nan nan nan nan nan nan nan nan nan nan
236 245 245 247 245 228 220 224 236 245 251 251 251 261 265 260 256 257 260 nan 255 258 258 262 275 nan nan nan nan 247 nan nan 261 266 277 284 283 278 279 275 273 nan 259 255 253 239 229 226 232 224 221 221 nan nan 213 208 197 191 197 199 318 315 284 300 288 302 307 303 295 288 272 nan nan nan nan nan nan nan nan nan nan nan nan nan nan
242 245 244 244 230 218 217 223 232 236 238 242 248 263 267 263 261 260 263 270 272 258 261 257 277 nan nan nan nan nan nan nan nan nan 267 280 280 281 268 261 268 268 261 254 252 nan 246 240 240 236 226 222 221 220 221 214 208 207 205 207 257 282 258 242 279 277 294 293 296 291 281 268 273 281 276 270 282 284 289 nan 282 288 288 nan nan
237 241 242 235 223 217 217 220 224 231 237 241 244 249 254 258 259 260 256 nan nan 270 269 254 272 nan nan nan nan 278 nan nan nan nan 262 260 272 278 272 258 260 262 248 248 nan nan 251 251 242 237 230 232 228 226 224 219 219 215 222 230 259 275 280 302 304 306 296 293 297 296 289 281 276 276 274 275 281 nan 283 281 nan nan nan nan nan
241 241 240 228 219 216 214 214 220 227 232 240 245 250 252 254 255 255 256 256 259 271 277 270 259 nan nan nan nan 247 nan nan nan nan nan 270 270 266 260 264 268 258 247 nan nan nan 250 250 241 237 232 231 231 228 227 223 224 223 238 243 251 268 267 271 276 282 280 278 284 291 288 283 281 280 281 279 nan nan nan nan nan nan nan nan nan
245 239 230 219 213 210 211 216 223 228 233 243 249 247 249 247 254 255 254 259 267 272 272 271 280 265 nan nan nan nan nan nan nan nan nan nan 273 260 254 257 260 255 250 nan nan nan 255 244 241 234 234 232 231 233 231 232 232 233 237 246 249 248 250 249 246 nan 260 264 273 276 278 280 279 nan nan nan nan nan nan nan nan nan nan nan nan
233 230 219 212 211 214 220 222 225 228 234 240 242 247 253 254 254 254 257 259 263 264 271 275 271 270 nan 245 251 nan nan nan nan nan nan nan 262 272 265 253 247 250 245 nan nan nan 251 nan 243 240 nan nan nan nan 237 239 239 240 242 248 250 254 nan nan nan nan nan 265 268 270 274 278 nan nan nan nan nan nan nan nan nan nan nan nan nan
222 219 217 216 219 224 228 228 226 231 234 240 244 249 250 254 260 260 258 262 259 264 271 268 269 261 258 263 252 250 nan nan nan nan nan nan nan 281 266 267 262 251 247 nan 248 247 nan 250 nan nan nan nan nan nan nan 243 244 245 248 252 253 nan nan nan nan nan nan nan nan nan 281 nan nan nan nan nan nan nan nan nan nan nan nan nan nan
220 218 221 225 226 228 229 227 227 231 238 243 248 252 253 256 258 257 259 263 262 264 259 258 264 260 258 262 265 nan nan nan nan nan nan nan nan 266 259 259 256 253 nan 241 244 248 250 nan nan nan nan nan nan nan nan nan 248 251 254 256 nan nan nan nan nan nan nan nan nan nan nan nan nan nan nan nan nan nan nan nan nan nan nan nan nan
219 219 223 228 230 227 227 228 230 232 240 245 248 251 251 252 255 258 260 260 260 262 258 259 259 257 256 257 260 259 nan nan nan nan nan nan nan nan 267 251 246 nan nan nan nan nan nan nan nan nan nan nan nan nan nan nan nan 254 255 nan nan nan nan nan nan nan nan nan nan nan nan nan nan nan nan nan nan nan nan nan nan nan nan nan nan
217 220 219 229 230 232 234 236 234 234 239 244 245 248 250 252 255 256 257 261 263 261 258 256 260 261 260 252 256 257 nan nan nan nan nan nan nan nan nan 248 249 nan nan nan nan nan nan nan nan nan nan nan nan nan nan nan nan nan nan nan nan nan nan nan nan nan nan nan nan nan nan nan nan nan nan nan nan nan nan nan nan nan nan nan nan
227 223 225 227 230 235 239 239 238 239 243 245 245 246 249 253 254 257 258 259 258 260 258 255 256 255 255 259 255 260 nan nan nan nan nan nan nan nan nan 244 nan nan nan nan nan nan nan nan nan nan nan nan nan nan nan nan nan nan nan nan nan nan nan nan nan nan nan nan nan nan nan nan nan nan nan nan nan nan nan nan nan nan nan nan nan
238 235 235 235 236 237 236 238 238 242 244 245 246 247 249 250 253 255 255 256 257 257 254 258 261 260 258 263 263 260 nan nan nan nan nan nan nan nan nan nan nan nan nan nan nan nan nan nan nan nan nan nan nan nan nan nan nan nan nan nan nan nan nan nan nan nan nan nan nan nan nan nan nan nan nan nan nan nan nan nan nan nan nan nan nan
243 246 243 245 244 241 238 239 242 246 247 249 249 249 249 252 251 254 257 251 257 255 255 258 261 265 267 262 263 264 nan 266 267 269 270 nan nan nan nan nan nan nan nan nan nan nan nan nan nan nan nan nan nan nan nan nan nan nan nan nan nan nan nan nan nan nan nan nan nan nan nan nan nan nan nan nan nan nan nan nan nan nan nan nan nan
253 248 251 246 247 246 244 243 245 247 247 248 249 248 249 249 252 256 258 255 256 258 257 260 260 263 264 270 272 271 270 268 266 269 269 nan nan nan nan nan nan nan nan nan nan nan nan nan nan nan nan nan nan nan nan nan nan nan nan nan nan nan nan nan nan nan nan nan nan nan nan nan nan nan nan nan nan nan nan nan nan nan nan nan nan
235 249 253 251 246 247 248 246 244 244 247 247 244 245 247 247 250 254 255 258 257 255 260 262 262 263 263 267 268 272 271 274 274 269 268 267 264 260 nan nan nan nan nan nan nan nan nan nan nan nan nan nan nan nan nan nan nan nan nan nan nan nan nan nan nan nan nan nan nan nan nan nan nan nan nan nan nan nan nan nan nan nan nan nan nan
250 250 252 251 248 246 247 246 243 244 245 246 241 243 244 248 248 251 251 257 260 260 259 262 262 264 266 270 269 272 273 272 nan 266 263 265 264 261 259 nan nan nan nan nan nan nan nan nan nan nan nan nan nan nan nan nan nan nan nan nan nan nan nan nan nan nan nan nan nan nan nan nan nan nan nan nan nan nan nan nan nan nan nan nan nan
248 249 252 251 250 248 245 246 244 244 246 244 243 242 244 248 251 254 254 257 259 260 258 257 262 264 267 270 272 273 270 267 267 267 268 265 265 266 nan nan nan nan nan nan nan nan nan nan nan nan nan nan nan nan nan nan nan nan nan nan nan nan nan nan nan nan nan nan nan nan nan nan nan nan nan nan nan nan nan nan nan nan nan nan nan
250 248 252 253 250 247 246 245 248 249 247 246 244 245 246 246 250 255 258 261 263 259 258 258 259 264 268 269 270 266 266 267 268 269 269 270 266 268 nan nan nan nan nan nan nan nan nan nan nan nan nan nan nan nan nan nan nan nan nan nan nan nan nan nan nan nan nan nan nan nan nan nan nan nan nan nan nan nan nan nan nan nan nan nan nan
252 253 256 254 251 248 244 243 247 251 247 246 243 246 248 249 252 255 263 265 264 262 260 261 261 263 265 268 265 260 261 264 265 268 270 270 266 nan nan nan nan nan nan nan nan nan nan nan nan nan nan nan nan nan nan nan nan nan nan nan nan nan nan nan nan nan nan nan nan nan nan nan nan nan nan nan nan nan nan nan nan nan nan nan nan
254 259 259 259 257 249 241 243 248 251 250 nan nan nan 250 254 258 258 263 267 268 266 263 264 265 263 264 265 263 260 262 262 263 265 263 262 265 nan nan nan nan nan nan nan nan nan nan nan nan nan nan nan nan nan nan nan nan nan nan nan nan nan nan nan nan nan nan nan nan nan nan nan nan nan nan nan nan nan nan nan nan nan nan nan nan
260 254 258 262 260 249 240 242 249 253 253 nan nan nan 253 254 258 262 263 265 268 267 267 265 264 265 265 262 259 262 264 267 266 264 268 270 267 267 266 268 nan nan nan nan nan nan nan nan nan nan nan nan nan nan nan nan nan nan nan nan nan nan nan nan nan nan nan nan nan nan nan nan nan nan nan nan nan nan nan nan nan nan nan nan nan
259 252 251 258 257 249 244 244 248 255 260 nan nan nan nan 252 258 262 265 267 267 265 263 262 264 264 262 261 258 262 266 269 266 268 265 265 265 268 277 278 277 274 270 nan nan nan nan nan nan nan nan nan nan nan nan nan nan nan nan nan nan nan nan nan nan nan nan nan nan nan nan nan nan nan nan nan nan nan nan nan nan nan nan nan nan
260 254 254 250 253 250 246 245 249 253 258 nan nan nan nan nan 254 259 265 268 266 262 259 259 260 258 257 253 258 266 267 269 266 267 265 268 nan 268 nan 282 278 273 276 nan nan nan nan nan nan nan nan nan nan nan nan nan nan nan nan nan nan nan nan nan nan nan nan nan nan nan nan nan nan nan nan nan nan nan nan nan nan nan nan nan nan
261 257 254 254 249 248 244 247 248 250 251 251 nan nan nan nan nan nan nan nan 261 258 257 257 254 252 253 253 246 242 258 260 265 nan nan nan nan nan nan nan nan nan nan nan nan nan nan nan nan nan nan nan nan nan nan nan nan nan nan nan nan nan nan nan nan nan nan nan nan nan nan nan nan nan nan nan nan nan nan nan nan nan nan nan nan
261 259 254 249 nan nan nan 245 246 246 249 nan nan nan nan nan nan nan nan nan nan 255 255 257 259 259 258 259 266 265 249 244 nan nan nan nan nan nan nan nan nan nan nan nan nan nan nan nan nan nan nan nan nan nan nan nan nan nan nan nan nan nan nan nan nan nan nan nan nan nan nan nan nan nan nan nan nan nan nan nan nan nan nan nan nan
258 256 249 247 nan nan nan 242 244 nan nan nan nan nan nan nan nan nan nan nan nan nan 255 253 247 248 253 254 254 nan nan nan nan nan nan nan nan nan nan nan nan nan nan nan nan nan nan nan nan nan nan nan nan nan nan nan nan nan nan nan nan nan nan nan nan nan nan nan nan nan nan nan nan nan nan nan nan nan nan nan nan nan nan nan nan
230 252 251 nan nan nan nan 240 239 nan nan nan nan nan nan nan nan nan nan nan nan nan nan 253 247 247 249 251 nan nan nan nan nan nan nan nan nan nan nan nan nan nan nan nan nan nan nan nan nan nan nan nan nan nan nan nan nan nan nan nan nan nan nan nan nan nan nan nan nan nan nan nan nan nan nan nan nan nan nan nan nan nan nan nan nan
nan 251 253 nan nan nan nan 246 nan nan nan nan nan nan nan nan nan nan nan nan nan nan nan 257 253 252 nan nan nan nan nan nan nan nan nan nan nan nan nan nan nan nan nan nan nan nan nan nan nan nan nan nan nan nan nan nan nan nan nan nan nan nan nan nan nan nan nan nan nan nan nan nan nan nan nan nan nan nan nan nan nan nan nan nan nan
nan 241 250 nan nan nan nan nan nan nan nan nan nan nan nan nan nan nan nan nan nan nan 257 256 254 nan nan nan nan nan nan nan nan nan nan nan nan nan nan nan nan nan nan nan nan nan nan nan nan nan nan nan nan nan nan nan nan nan nan nan nan nan nan nan nan nan nan nan nan nan nan nan nan nan nan nan nan nan nan nan nan nan nan nan nan
nan 241 253 nan nan nan nan nan nan nan nan nan nan nan nan nan nan nan nan nan 255 255 258 260 259 257 nan nan nan nan nan nan nan nan nan nan nan nan nan nan nan nan nan nan nan nan nan nan nan nan nan nan nan nan nan nan nan nan nan nan nan nan nan nan nan nan nan nan nan nan nan nan nan nan nan nan nan nan nan nan nan nan nan nan nan
nan 240 249 nan nan nan nan nan nan nan nan nan nan nan nan nan nan nan nan nan 248 249 251 253 nan nan nan nan nan nan nan nan nan nan nan nan nan nan nan nan nan nan nan nan nan nan nan nan nan nan nan nan nan nan nan nan nan nan nan nan nan nan nan nan nan nan nan nan nan nan nan nan nan nan nan nan nan nan nan nan nan nan nan nan nan
nan nan nan nan nan nan nan nan nan nan nan nan nan nan nan nan nan nan nan nan 248 247 247 nan nan nan nan nan nan nan nan nan nan nan nan nan nan nan nan nan nan nan nan nan nan nan nan nan nan nan nan nan nan nan nan nan nan nan nan nan nan nan nan nan nan nan nan nan nan nan nan nan nan nan nan nan nan nan nan nan nan nan nan nan nan
nan nan nan nan nan nan nan nan nan nan nan nan nan nan nan nan nan nan nan nan nan nan nan nan 247 247 nan nan nan nan nan nan nan nan nan nan nan nan nan nan nan nan nan nan nan nan nan nan nan nan nan nan nan nan nan nan nan nan nan nan nan nan nan nan nan nan nan nan nan nan nan nan nan nan nan nan nan nan nan nan nan nan nan 298 nan
nan nan nan nan nan nan nan nan nan nan nan nan nan nan nan nan nan nan nan nan nan nan nan nan nan nan nan nan nan nan nan nan nan nan nan nan nan nan nan nan 282 nan nan nan nan nan nan nan nan nan nan nan nan nan nan nan nan nan nan nan nan nan nan nan nan nan nan nan nan nan nan nan nan nan nan nan nan nan nan nan nan nan nan nan nan
nan nan nan nan nan nan nan nan nan nan nan nan nan nan nan nan nan nan nan nan nan nan nan nan nan nan nan nan nan nan nan nan nan nan nan nan nan nan nan nan nan nan nan nan nan nan nan nan nan nan nan nan nan nan nan nan nan nan nan nan nan nan nan nan nan nan nan nan nan nan nan nan nan nan nan nan nan nan nan nan nan nan nan nan nan
nan nan nan nan nan nan nan nan nan nan nan nan nan nan nan nan nan nan nan nan nan nan nan nan nan nan nan nan nan nan nan nan nan nan nan nan nan nan nan nan nan nan nan nan nan nan nan nan nan nan nan nan nan nan nan nan nan nan nan nan nan nan nan nan nan nan nan nan nan nan nan nan nan nan nan nan nan nan nan nan nan nan nan nan nan